Regional Weather Roundup
Issued by NWS

Home | Current Version | Previous Version | Graphics & Text | Print | Product List | Glossary On
Versions: 1 2 3 4 5 6 7 8 9 10 11 12 13 14 15 16 17 18 19 20 21 22 23 24 25 26 27 28 29 30 31 32 33 34 35 36 37 38 39 40 41 42 43 44 45 46 47 48 49 50
000
ASUS43 KBIS 261310
RWRND

NORTH DAKOTA REGIONAL WEATHER ROUNDUP
NATIONAL WEATHER SERVICE BISMARCK ND
800 AM CDT THU MAY 26 2016

NOTE: "FAIR" INDICATES FEW OR NO CLOUDS BELOW 12,000 FEET WITH NO
SIGNIFICANT WEATHER AND/OR OBSTRUCTIONS TO VISIBILITY.


NDZ001>003-009>011-017-261400-
NORTHWEST NORTH DAKOTA

CITY           SKY/WX    TMP DP  RH WIND       PRES   REMARKS
WILLISTON      CLOUDY    49  48  97 NW5       29.82R
MINOT          CLOUDY    58  54  86 SW8       29.77R
MINOT AFB      DRIZZLE   55  55 100 NW7       29.75S FOG
$$

NDZ018>021-031>035-040>046-261400-
SOUTHWEST NORTH DAKOTA

CITY           SKY/WX    TMP DP  RH WIND       PRES   REMARKS
BISMARCK       SUNNY     51  46  83 W6        29.83R
DICKINSON      CLOUDY    50  46  86 W10       29.81R
GARRISON         N/A     51  50  96 NW10      29.79S
HETTINGER ARPT CLOUDY    48  43  82 W7        29.87R
$$

NDZ004>008-012>016-024-026-027-054-261400-
NORTHEAST NORTH DAKOTA

CITY           SKY/WX    TMP DP  RH WIND       PRES   REMARKS
GRAND FORKS    CLOUDY    59  55  87 SW8       29.73R
GRND FRKS AFB  CLOUDY    58  57  94 W7        29.73S
DEVILS LAKE    CLOUDY    56  54  93 NW8       29.75S
$$

NDZ022-023-025-028>030-036>039-047>053-261400-
SOUTHEAST NORTH DAKOTA

CITY           SKY/WX    TMP DP  RH WIND       PRES   REMARKS
FARGO          SUNNY     58  54  86 SW7       29.75S
JAMESTOWN      CLOUDY    55  53  93 W12       29.78R
$$




USA.gov is the U.S. government's official web portal to all federal, state and local government web resources and services.